SVR1891 URMM-HESH

Flight info

Callsign SVR1891
Flight time N/A
Altitude 34000
Route RESLO5M RESLO DCT VENFO DCT BINOL G487 ODIRA/N0451F340 UW96 SIN UT61 BAG UP29 AYT UA16 TOMBI M855 RASDA A16 CVO L677 MENLI N697 SISIK V603 ALSOB ALSOB1G
Aircraft A321/M-SDE2FGHIJ1RUWY/SB1

Departure

Time 2026-04-14 00:48
Airport Mineralnye Vody Airport (URMM)

Arrival

Time N/A
Airport Sharm El Sheikh International Airport (HESH)
Time Latitude Longitude Altitude Speed Heading
2026-04-14 00:12 44.21818 43.08900 1051 ft 0 kts 212°
2026-04-14 00:37 44.21823 43.08905 1051 ft 4 kts 212°
2026-04-14 00:37 44.21846 43.08925 1052 ft 4 kts 212°
2026-04-14 00:37 44.21866 43.08940 1051 ft 4 kts 181°
2026-04-14 00:38 44.21887 43.08930 1052 ft 4 kts 131°
2026-04-14 00:38 44.21897 43.08911 1052 ft 1 kts 122°
2026-04-14 00:38 44.21899 43.08908 1052 ft 2 kts 122°
2026-04-14 00:42 44.21893 43.08920 1051 ft 3 kts 122°
2026-04-14 00:42 44.21876 43.08958 1051 ft 7 kts 122°
2026-04-14 00:42 44.21844 43.09028 1051 ft 11 kts 124°
2026-04-14 00:43 44.21795 43.09121 1051 ft 12 kts 122°
2026-04-14 00:43 44.21754 43.09212 1051 ft 10 kts 122°
2026-04-14 00:43 44.21719 43.09285 1051 ft 8 kts 127°
2026-04-14 00:43 44.21680 43.09340 1051 ft 9 kts 134°
2026-04-14 00:44 44.21637 43.09428 1051 ft 13 kts 122°
2026-04-14 00:44 44.21582 43.09550 1051 ft 17 kts 122°
2026-04-14 00:44 44.21515 43.09698 1051 ft 12 kts 122°
2026-04-14 00:44 44.21463 43.09814 1051 ft 15 kts 123°
2026-04-14 00:45 44.21471 43.09861 1051 ft 6 kts 34°
2026-04-14 00:45 44.21517 43.09902 1051 ft 10 kts 33°
2026-04-14 00:45 44.21550 43.09998 1051 ft 13 kts 75°
2026-04-14 00:45 44.21573 43.10136 1051 ft 16 kts 77°
2026-04-14 00:46 44.21634 43.10249 1051 ft 15 kts 32°
2026-04-14 00:46 44.21715 43.10319 1051 ft 9 kts 31°
2026-04-14 00:46 44.21758 43.10323 1052 ft 4 kts 329°
2026-04-14 00:46 44.21772 43.10299 1052 ft 3 kts 304°
2026-04-14 00:47 44.21778 43.10285 1053 ft 2 kts 302°
2026-04-14 00:47 44.21869 43.10086 1052 ft 59 kts 302°
2026-04-14 00:47 44.22206 43.09343 1055 ft 120 kts 303°
2026-04-14 00:47 44.22747 43.08156 1051 ft 168 kts 302°
2026-04-14 00:48 44.23388 43.06709 1502 ft 175 kts 299°
2026-04-14 00:48 44.24033 43.05268 2255 ft 173 kts 300°
2026-04-14 00:48 44.24679 43.03842 2689 ft 180 kts 301°
2026-04-14 00:48 44.25383 43.02289 2817 ft 200 kts 301°
2026-04-14 00:49 44.26170 43.00548 3013 ft 222 kts 301°
2026-04-14 00:49 44.27007 42.98697 3619 ft 228 kts 301°
2026-04-14 00:49 44.27863 42.96801 4297 ft 233 kts 301°
2026-04-14 00:49 44.28734 42.94870 4970 ft 237 kts 301°
2026-04-14 00:50 44.29620 42.92906 5639 ft 241 kts 301°
2026-04-14 00:50 44.30520 42.90914 6326 ft 244 kts 300°
2026-04-14 00:50 44.31414 42.88885 6980 ft 246 kts 295°
2026-04-14 00:50 44.31925 42.86623 7599 ft 246 kts 275°
2026-04-14 00:51 44.31927 42.85033 8001 ft 249 kts 263°
2026-04-14 00:51 44.31410 42.82698 8563 ft 257 kts 243°
2026-04-14 00:51 44.30370 42.80641 9181 ft 262 kts 235°
2026-04-14 00:51 44.28899 42.77955 10069 ft 264 kts 236°
2026-04-14 00:52 44.27723 42.75925 10425 ft 279 kts 228°
2026-04-14 00:52 44.26139 42.74190 10557 ft 302 kts 213°
2026-04-14 00:52 44.24818 42.73320 10644 ft 318 kts 203°
2026-04-14 00:52 44.22615 42.72473 10867 ft 334 kts 198°
2026-04-14 00:53 44.20378 42.71675 11346 ft 339 kts 198°
2026-04-14 00:53 44.18081 42.70853 11896 ft 342 kts 197°
2026-04-14 00:53 44.15845 42.69753 12425 ft 342 kts 211°
2026-04-14 00:53 44.13978 42.67718 12978 ft 342 kts 230°
2026-04-14 00:54 44.12722 42.64926 13518 ft 343 kts 249°
2026-04-14 00:54 44.12104 42.61702 14035 ft 347 kts 257°
2026-04-14 00:54 44.11581 42.58409 14522 ft 350 kts 257°
2026-04-14 00:54 44.11055 42.55086 15005 ft 353 kts 257°
2026-04-14 00:55 44.10525 42.51739 15483 ft 355 kts 257°
2026-04-14 00:55 44.09984 42.48363 15950 ft 358 kts 256°
2026-04-14 00:55 44.09433 42.44968 16394 ft 361 kts 256°
2026-04-14 00:55 44.08871 42.41544 16848 ft 364 kts 256°
2026-04-14 00:56 44.08311 42.38135 17303 ft 368 kts 256°
2026-04-14 00:56 44.07740 42.34651 17746 ft 371 kts 256°
2026-04-14 00:56 44.07166 42.31136 18165 ft 374 kts 256°
2026-04-14 00:56 44.06584 42.27592 18557 ft 378 kts 255°
2026-04-14 00:57 44.05994 42.24008 18935 ft 380 kts 255°
2026-04-14 00:57 44.05406 42.20414 19290 ft 382 kts 256°
2026-04-14 00:57 44.04815 42.16793 19655 ft 385 kts 256°
2026-04-14 00:57 44.04220 42.13157 20020 ft 387 kts 256°
2026-04-14 00:58 44.03617 42.09507 20373 ft 389 kts 255°
2026-04-14 00:58 44.03010 42.05842 20726 ft 390 kts 256°
2026-04-14 00:58 44.02398 42.02150 21063 ft 392 kts 256°
2026-04-14 00:58 44.01781 41.98449 21406 ft 395 kts 256°
2026-04-14 00:59 44.01162 41.94728 21764 ft 397 kts 256°
2026-04-14 00:59 44.00537 41.90983 22101 ft 398 kts 256°
2026-04-14 00:59 43.99909 41.87221 22464 ft 401 kts 256°
2026-04-14 00:59 43.99283 41.83486 22812 ft 403 kts 256°
2026-04-14 01:00 43.98646 41.79687 23160 ft 405 kts 256°
2026-04-14 01:00 43.98005 41.75873 23521 ft 407 kts 256°
2026-04-14 01:00 43.97358 41.72034 23833 ft 409 kts 256°
2026-04-14 01:00 43.96704 41.68173 24118 ft 412 kts 256°
2026-04-14 01:01 43.96042 41.64296 24420 ft 413 kts 256°
2026-04-14 01:01 43.95375 41.60403 24702 ft 415 kts 256°
2026-04-14 01:01 43.94705 41.56495 24977 ft 417 kts 256°
2026-04-14 01:01 43.94032 41.52570 25256 ft 419 kts 256°
2026-04-14 01:02 43.93357 41.48632 25525 ft 421 kts 256°
2026-04-14 01:02 43.92680 41.44671 25807 ft 422 kts 256°
2026-04-14 01:02 43.92000 41.40699 26073 ft 424 kts 256°
2026-04-14 01:02 43.91314 41.36709 26344 ft 426 kts 256°
2026-04-14 01:03 43.90625 41.32708 26606 ft 427 kts 256°
2026-04-14 01:03 43.89928 41.28691 26873 ft 429 kts 256°
2026-04-14 01:03 43.89227 41.24664 27138 ft 430 kts 256°
2026-04-14 01:03 43.88535 41.20703 27395 ft 432 kts 256°
2026-04-14 01:04 43.87822 41.16626 27654 ft 433 kts 256°
2026-04-14 01:04 43.87111 41.12567 27907 ft 434 kts 256°
2026-04-14 01:04 43.86397 41.08494 28158 ft 436 kts 257°
2026-04-14 01:04 43.85680 41.04401 28400 ft 437 kts 257°
2026-04-14 01:05 43.84962 41.00307 28628 ft 438 kts 257°
2026-04-14 01:05 43.84239 40.96197 28853 ft 439 kts 257°
2026-04-14 01:05 43.83513 40.92083 29064 ft 440 kts 257°
2026-04-14 01:05 43.82782 40.87962 29252 ft 441 kts 257°
2026-04-14 01:06 43.82048 40.83832 29447 ft 442 kts 257°
2026-04-14 01:06 43.81314 40.79703 29626 ft 442 kts 257°
2026-04-14 01:06 43.80576 40.75567 29849 ft 442 kts 257°
2026-04-14 01:06 43.79848 40.71504 30116 ft 440 kts 257°
2026-04-14 01:07 43.79110 40.67396 30351 ft 439 kts 257°
2026-04-14 01:07 43.78374 40.63301 30560 ft 438 kts 257°
2026-04-14 01:07 43.77640 40.59207 30722 ft 438 kts 257°
2026-04-14 01:07 43.76909 40.55125 30903 ft 437 kts 257°
2026-04-14 01:08 43.76177 40.51044 31065 ft 436 kts 258°
2026-04-14 01:08 43.75442 40.46974 31247 ft 436 kts 257°
2026-04-14 01:08 43.74702 40.42915 31441 ft 435 kts 258°
2026-04-14 01:08 43.73962 40.38864 31615 ft 434 kts 257°
2026-04-14 01:09 43.73221 40.34811 31780 ft 434 kts 258°
2026-04-14 01:09 43.72481 40.30773 31977 ft 433 kts 258°
2026-04-14 01:09 43.71739 40.26744 32143 ft 432 kts 258°
2026-04-14 01:09 43.70999 40.22726 32311 ft 432 kts 258°
2026-04-14 01:10 43.70268 40.18758 32487 ft 431 kts 258°
2026-04-14 01:10 43.69527 40.14742 32668 ft 430 kts 258°
2026-04-14 01:10 43.68719 40.10759 32840 ft 431 kts 253°
2026-04-14 01:10 43.67552 40.06931 33005 ft 433 kts 249°
2026-04-14 01:11 43.66317 40.03138 33178 ft 432 kts 249°
2026-04-14 01:11 43.65082 39.99354 33359 ft 432 kts 249°
2026-04-14 01:11 43.63848 39.95576 33521 ft 431 kts 249°
2026-04-14 01:11 43.62615 39.91805 33704 ft 431 kts 249°
2026-04-14 01:12 43.61381 39.88029 33867 ft 430 kts 249°
2026-04-14 01:12 43.60148 39.84264 34025 ft 430 kts 249°
2026-04-14 01:12 43.58932 39.80559 34195 ft 429 kts 249°
2026-04-14 01:13 43.56479 39.73101 34247 ft 425 kts 250°
2026-04-14 01:13 43.54037 39.65697 34248 ft 424 kts 250°
2026-04-14 01:14 43.51588 39.58326 34250 ft 423 kts 250°
2026-04-14 01:14 43.49131 39.50972 34247 ft 422 kts 250°
2026-04-14 01:15 43.46676 39.43639 34251 ft 421 kts 250°
2026-04-14 01:15 43.44223 39.36318 34260 ft 421 kts 250°
2026-04-14 01:16 43.41770 39.29014 34264 ft 420 kts 250°
2026-04-14 01:16 43.39330 39.21770 34269 ft 420 kts 250°
2026-04-14 01:18 43.30315 38.92384 34285 ft 414 kts 255°
2026-04-14 01:19 43.28304 38.85034 34286 ft 413 kts 255°
2026-04-14 01:19 43.26226 38.77684 34282 ft 413 kts 255°
2026-04-14 01:20 43.24116 38.70349 34282 ft 412 kts 254°
2026-04-14 01:20 43.21994 38.63056 34284 ft 411 kts 254°
2026-04-14 01:21 43.19884 38.55772 34280 ft 410 kts 255°
2026-04-14 01:21 43.17780 38.48515 34292 ft 409 kts 255°
2026-04-14 01:22 43.15680 38.41272 34288 ft 409 kts 255°
2026-04-14 01:22 43.13573 38.34034 34288 ft 408 kts 255°
2026-04-14 01:23 43.11477 38.26865 34288 ft 408 kts 255°
2026-04-14 01:23 43.09359 38.19663 34283 ft 407 kts 255°
2026-04-14 01:24 43.07258 38.12478 34285 ft 405 kts 255°
2026-04-14 01:24 43.05191 38.05309 34289 ft 404 kts 255°
2026-04-14 01:25 43.03125 37.98168 34285 ft 403 kts 255°
2026-04-14 01:25 43.01033 37.91052 34298 ft 403 kts 255°
2026-04-14 01:26 42.98940 37.84004 34291 ft 402 kts 255°
2026-04-14 01:26 42.96838 37.76920 34290 ft 401 kts 255°
2026-04-14 01:27 42.94730 37.69862 34293 ft 400 kts 255°
2026-04-14 01:27 42.92619 37.62841 34288 ft 399 kts 255°
2026-04-14 01:28 42.90509 37.55833 34283 ft 399 kts 255°
2026-04-14 01:28 42.88414 37.48883 34285 ft 398 kts 255°
2026-04-14 01:29 42.86310 37.41904 34290 ft 397 kts 255°
2026-04-14 01:29 42.84203 37.34954 34288 ft 396 kts 255°
2026-04-14 01:30 42.82096 37.28025 34286 ft 395 kts 255°
2026-04-14 01:30 42.79997 37.21115 34278 ft 394 kts 255°
2026-04-14 01:31 42.77892 37.14225 34277 ft 395 kts 256°
2026-04-14 01:31 42.75777 37.07333 34279 ft 394 kts 256°
2026-04-14 01:32 42.73665 37.00455 34279 ft 393 kts 256°
2026-04-14 01:32 42.71561 36.93644 34282 ft 393 kts 256°
2026-04-14 01:33 42.69326 36.86847 34289 ft 396 kts 253°
2026-04-14 01:33 42.66860 36.80145 34289 ft 397 kts 252°
2026-04-14 01:34 42.64368 36.73464 34291 ft 395 kts 253°
2026-04-14 01:34 42.61920 36.66783 34283 ft 395 kts 253°
2026-04-14 01:35 42.59482 36.60108 34284 ft 394 kts 253°
2026-04-14 01:35 42.57041 36.53448 34287 ft 394 kts 254°
2026-04-14 01:36 42.54598 36.46798 34289 ft 394 kts 254°
2026-04-14 01:36 42.52151 36.40141 34285 ft 394 kts 254°
2026-04-14 01:37 42.49708 36.33502 34282 ft 394 kts 254°
2026-04-14 01:37 42.47256 36.26863 34277 ft 394 kts 254°
2026-04-14 01:38 42.43581 36.16950 34272 ft 394 kts 253°
2026-04-14 01:38 42.41119 36.10316 34268 ft 395 kts 253°
2026-04-14 01:39 42.38649 36.03687 34266 ft 395 kts 253°
2026-04-14 01:39 42.36175 35.97053 34265 ft 395 kts 253°
2026-04-14 01:40 42.33695 35.90406 34265 ft 396 kts 253°
2026-04-14 01:40 42.31198 35.83759 34272 ft 397 kts 253°
2026-04-14 01:41 42.29112 35.78235 34275 ft 397 kts 253°
2026-04-14 01:41 42.26609 35.71589 34275 ft 397 kts 253°
2026-04-14 01:42 42.24104 35.64950 34277 ft 397 kts 253°
2026-04-14 01:42 42.21594 35.58310 34270 ft 397 kts 253°
2026-04-14 01:43 42.19099 35.51721 34271 ft 397 kts 252°
2026-04-14 01:43 42.16573 35.45089 34276 ft 397 kts 252°
2026-04-14 01:44 42.14049 35.38463 34271 ft 397 kts 252°
2026-04-14 01:44 42.11545 35.31845 34273 ft 397 kts 252°
2026-04-14 01:45 42.09026 35.25227 34280 ft 397 kts 252°
2026-04-14 01:45 42.06505 35.18625 34280 ft 396 kts 252°
2026-04-14 01:46 42.03990 35.12035 34285 ft 396 kts 252°
2026-04-14 01:46 42.00817 35.05831 34287 ft 416 kts 234°
2026-04-14 01:47 41.96487 35.00617 34290 ft 421 kts 232°
2026-04-14 01:47 41.92100 34.95393 34287 ft 421 kts 232°
2026-04-14 01:48 41.87736 34.90160 34281 ft 421 kts 232°
2026-04-14 01:48 41.83368 34.84925 34285 ft 421 kts 232°
2026-04-14 01:49 41.78992 34.79702 34283 ft 421 kts 231°
2026-04-14 01:49 41.74620 34.74491 34284 ft 421 kts 231°
2026-04-14 01:50 41.70230 34.69278 34280 ft 421 kts 231°
2026-04-14 01:50 41.65841 34.64082 34276 ft 421 kts 231°
2026-04-14 01:51 41.61447 34.58888 34275 ft 421 kts 231°
2026-04-14 01:51 41.57061 34.53698 34269 ft 421 kts 231°
2026-04-14 01:52 41.52713 34.48536 34261 ft 421 kts 231°
2026-04-14 01:52 41.48341 34.43339 34257 ft 421 kts 231°
2026-04-14 01:53 41.43953 34.38136 34248 ft 422 kts 230°
2026-04-14 01:53 41.39557 34.32940 34245 ft 422 kts 230°
2026-04-14 01:54 41.35164 34.27750 34238 ft 422 kts 230°
2026-04-14 01:54 41.30762 34.22555 34232 ft 422 kts 230°
2026-04-14 01:55 41.26358 34.17380 34240 ft 423 kts 230°
2026-04-14 01:55 41.21969 34.12238 34236 ft 423 kts 229°
2026-04-14 01:56 41.17542 34.07075 34229 ft 423 kts 229°
2026-04-14 01:56 41.13115 34.01922 34228 ft 424 kts 229°
2026-04-14 01:57 41.08683 33.96769 34222 ft 423 kts 229°
2026-04-14 01:57 41.04283 33.91662 34213 ft 423 kts 229°
2026-04-14 01:58 40.99861 33.86524 34211 ft 423 kts 229°
2026-04-14 01:58 40.95423 33.81393 34214 ft 423 kts 229°
2026-04-14 01:59 40.90989 33.76283 34214 ft 422 kts 229°
2026-04-14 01:59 40.86561 33.71180 34216 ft 423 kts 229°
2026-04-14 02:00 40.82123 33.66069 34207 ft 423 kts 229°
2026-04-14 02:00 40.77690 33.60969 34198 ft 422 kts 229°
2026-04-14 02:01 40.73280 33.55907 34196 ft 423 kts 229°
2026-04-14 02:01 40.68838 33.50827 34206 ft 423 kts 228°
2026-04-14 02:02 40.64380 33.45747 34202 ft 423 kts 228°
2026-04-14 02:02 40.59918 33.40658 34197 ft 424 kts 228°
2026-04-14 02:03 40.55452 33.35563 34194 ft 425 kts 228°
2026-04-14 02:03 40.51010 33.30503 34200 ft 426 kts 228°
2026-04-14 02:04 40.46521 33.25420 34202 ft 426 kts 227°
2026-04-14 02:04 40.42025 33.20341 34205 ft 426 kts 227°
2026-04-14 02:05 40.37530 33.15258 34199 ft 426 kts 227°
2026-04-14 02:05 40.33039 33.10182 34205 ft 426 kts 227°
2026-04-14 02:06 40.28544 33.05119 34214 ft 426 kts 227°
2026-04-14 02:06 40.24041 33.00069 34219 ft 426 kts 227°
2026-04-14 02:07 40.19569 32.95066 34223 ft 425 kts 227°
2026-04-14 02:07 40.15079 32.90043 34224 ft 425 kts 227°
2026-04-14 02:08 40.10592 32.85017 34223 ft 424 kts 227°
2026-04-14 02:08 40.05910 32.80277 34221 ft 433 kts 217°
2026-04-14 02:09 40.00518 32.76625 34212 ft 437 kts 214°
2026-04-14 02:09 39.95135 32.73039 34213 ft 437 kts 214°
2026-04-14 02:10 39.89729 32.69425 34208 ft 437 kts 214°
2026-04-14 02:10 39.84322 32.65809 34206 ft 437 kts 214°
2026-04-14 02:11 39.78906 32.62197 34209 ft 437 kts 214°
2026-04-14 02:11 39.73487 32.58583 34205 ft 437 kts 215°
2026-04-14 02:12 39.68075 32.54976 34204 ft 437 kts 215°
2026-04-14 02:12 39.62649 32.51380 34202 ft 437 kts 215°
2026-04-14 02:13 39.57265 32.47814 34202 ft 437 kts 214°
2026-04-14 02:13 39.51852 32.44243 34200 ft 437 kts 215°
2026-04-14 02:14 39.46432 32.40674 34197 ft 436 kts 215°
2026-04-14 02:14 39.41016 32.37095 34200 ft 436 kts 215°
2026-04-14 02:15 39.35610 32.33537 34200 ft 436 kts 215°
2026-04-14 02:15 39.30193 32.30002 34193 ft 436 kts 215°
2026-04-14 02:16 39.24811 32.26508 34207 ft 436 kts 215°
2026-04-14 02:16 39.19386 32.22991 34207 ft 436 kts 215°
2026-04-14 02:17 39.13961 32.19467 34212 ft 437 kts 215°
2026-04-14 02:17 39.08541 32.15932 34211 ft 437 kts 215°
2026-04-14 02:18 39.03102 32.12399 34205 ft 437 kts 215°
2026-04-14 02:18 38.97661 32.08887 34210 ft 437 kts 215°
2026-04-14 02:19 38.92249 32.05416 34207 ft 438 kts 215°
2026-04-14 02:19 38.86799 32.01911 34212 ft 438 kts 215°
2026-04-14 02:20 38.81342 31.98415 34213 ft 438 kts 215°
2026-04-14 02:20 38.75877 31.94920 34213 ft 438 kts 215°
2026-04-14 02:21 38.70424 31.91430 34214 ft 438 kts 215°
2026-04-14 02:21 38.64973 31.87946 34212 ft 438 kts 215°
2026-04-14 02:22 38.59562 31.84486 34215 ft 437 kts 215°
2026-04-14 02:22 38.54112 31.81021 34223 ft 438 kts 215°
2026-04-14 02:23 38.48652 31.77560 34225 ft 438 kts 215°
2026-04-14 02:23 38.43203 31.74103 34218 ft 437 kts 215°
2026-04-14 02:24 38.37751 31.70650 34214 ft 437 kts 214°
2026-04-14 02:24 38.32305 31.67202 34210 ft 437 kts 215°
2026-04-14 02:25 38.26859 31.63763 34207 ft 437 kts 214°
2026-04-14 02:25 38.21443 31.60355 34203 ft 437 kts 215°
2026-04-14 02:26 38.16006 31.56929 34206 ft 436 kts 215°
2026-04-14 02:26 38.10570 31.53514 34200 ft 435 kts 214°
2026-04-14 02:27 38.05104 31.50187 34201 ft 436 kts 214°
2026-04-14 02:27 37.99604 31.46914 34197 ft 436 kts 214°
2026-04-14 02:28 37.95035 31.44190 34198 ft 435 kts 214°
2026-04-14 02:28 37.88669 31.40380 34196 ft 434 kts 214°
2026-04-14 02:29 37.84091 31.37637 34201 ft 434 kts 214°
2026-04-14 02:29 37.78643 31.34371 34196 ft 433 kts 214°
2026-04-14 02:30 37.73222 31.31126 34200 ft 433 kts 214°
2026-04-14 02:30 37.67778 31.27881 34209 ft 433 kts 214°
2026-04-14 02:31 37.62339 31.24643 34204 ft 432 kts 214°
2026-04-14 02:31 37.56901 31.21413 34201 ft 431 kts 214°
2026-04-14 02:32 37.51471 31.18195 34188 ft 430 kts 214°
2026-04-14 02:32 37.46077 31.15005 34190 ft 431 kts 214°
2026-04-14 02:33 37.40647 31.11790 34201 ft 432 kts 214°
2026-04-14 02:34 37.32546 31.06859 34206 ft 428 kts 217°
2026-04-14 02:34 37.27322 31.03273 34207 ft 426 kts 218°
2026-04-14 02:35 37.22135 30.99658 34196 ft 426 kts 217°
2026-04-14 02:35 37.16955 30.96131 34190 ft 426 kts 217°
2026-04-14 02:36 37.11726 30.92630 34188 ft 427 kts 217°
2026-04-14 02:36 37.06493 30.89126 34190 ft 426 kts 217°
2026-04-14 02:37 37.01268 30.85619 34196 ft 426 kts 217°
2026-04-14 02:37 36.96042 30.82119 34204 ft 426 kts 216°
2026-04-14 02:37 36.93275 30.80648 34201 ft 438 kts 206°
2026-04-14 02:38 36.90266 30.79779 34201 ft 450 kts 195°
2026-04-14 02:38 36.87100 30.79598 34200 ft 461 kts 186°
2026-04-14 02:38 36.83934 30.79730 34197 ft 462 kts 186°
2026-04-14 02:39 36.77502 30.79984 34193 ft 462 kts 186°
2026-04-14 02:39 36.71070 30.80210 34192 ft 463 kts 187°
2026-04-14 02:40 36.64630 30.80422 34199 ft 464 kts 187°
2026-04-14 02:40 36.58175 30.80635 34202 ft 464 kts 187°
2026-04-14 02:41 36.51730 30.80856 34202 ft 464 kts 186°
2026-04-14 02:41 36.45278 30.81090 34200 ft 464 kts 187°
2026-04-14 02:42 36.38822 30.81317 34201 ft 464 kts 186°
2026-04-14 02:42 36.32398 30.81524 34193 ft 465 kts 187°
2026-04-14 02:43 36.25933 30.81728 34196 ft 465 kts 187°
2026-04-14 02:43 36.19460 30.81932 34198 ft 465 kts 186°
2026-04-14 02:44 36.13008 30.82143 34201 ft 464 kts 186°
2026-04-14 02:44 36.06539 30.82364 34198 ft 464 kts 186°
2026-04-14 02:45 36.00074 30.82623 34180 ft 466 kts 186°
2026-04-14 02:45 35.93589 30.83036 34183 ft 466 kts 185°
2026-04-14 02:46 35.87091 30.83470 34187 ft 467 kts 185°
2026-04-14 02:46 35.80600 30.83871 34192 ft 467 kts 185°
2026-04-14 02:47 35.74144 30.84253 34191 ft 467 kts 185°
2026-04-14 02:47 35.67653 30.84637 34184 ft 467 kts 185°
2026-04-14 02:48 35.61167 30.85027 34197 ft 467 kts 185°
2026-04-14 02:48 35.54686 30.85305 34196 ft 465 kts 186°
2026-04-14 02:49 35.48211 30.85481 34192 ft 465 kts 186°
2026-04-14 02:49 35.41732 30.85666 34199 ft 466 kts 186°
2026-04-14 02:50 35.35236 30.85875 34201 ft 466 kts 186°
2026-04-14 02:50 35.28746 30.86091 34204 ft 467 kts 186°
2026-04-14 02:51 35.22240 30.86318 34203 ft 467 kts 186°
2026-04-14 02:51 35.15747 30.86548 34201 ft 467 kts 185°
2026-04-14 02:52 35.09299 30.86763 34202 ft 467 kts 185°
2026-04-14 02:52 35.02789 30.86970 34208 ft 468 kts 185°
2026-04-14 02:53 34.96291 30.87181 34202 ft 466 kts 185°
2026-04-14 02:53 34.89796 30.87404 34206 ft 467 kts 185°
2026-04-14 02:54 34.83314 30.87623 34210 ft 465 kts 185°
2026-04-14 02:54 34.76882 30.87841 34195 ft 465 kts 185°
2026-04-14 02:55 34.70413 30.88049 34193 ft 466 kts 185°
2026-04-14 02:55 34.63943 30.88252 34188 ft 465 kts 185°
2026-04-14 02:56 34.57462 30.88484 34194 ft 465 kts 184°
2026-04-14 02:56 34.50984 30.88824 34192 ft 466 kts 184°
2026-04-14 02:57 34.44505 30.89181 34198 ft 466 kts 184°
2026-04-14 02:57 34.38076 30.89498 34198 ft 465 kts 184°
2026-04-14 02:58 34.31616 30.89807 34197 ft 464 kts 184°
2026-04-14 02:58 34.25152 30.90119 34195 ft 464 kts 184°
2026-04-14 02:59 34.18741 30.90452 34201 ft 464 kts 183°
2026-04-14 02:59 34.12295 30.90825 34194 ft 463 kts 183°
2026-04-14 03:00 34.05853 30.91193 34193 ft 463 kts 183°
2026-04-14 03:00 33.99420 30.91546 34194 ft 463 kts 183°
2026-04-14 03:01 33.92979 30.91888 34189 ft 462 kts 183°
2026-04-14 03:01 33.86553 30.92152 34190 ft 462 kts 184°
2026-04-14 03:02 33.80134 30.92363 34196 ft 462 kts 184°
2026-04-14 03:02 33.73706 30.92596 34193 ft 461 kts 184°
2026-04-14 03:03 33.67324 30.92834 34194 ft 461 kts 184°
2026-04-14 03:03 33.60905 30.93075 34189 ft 461 kts 184°
2026-04-14 03:04 33.54484 30.93331 34187 ft 461 kts 183°
2026-04-14 03:04 33.48060 30.93581 34184 ft 461 kts 184°
2026-04-14 03:05 33.41642 30.93815 34179 ft 461 kts 183°
2026-04-14 03:05 33.35228 30.94048 34178 ft 461 kts 184°
2026-04-14 03:06 33.28810 30.94293 34177 ft 461 kts 183°
2026-04-14 03:06 33.22387 30.94541 34179 ft 461 kts 183°
2026-04-14 03:07 33.15973 30.94776 34175 ft 461 kts 183°
2026-04-14 03:07 33.09552 30.95018 34177 ft 462 kts 182°
2026-04-14 03:08 33.03171 30.95587 34185 ft 464 kts 179°
2026-04-14 03:08 32.96706 30.96430 34177 ft 464 kts 178°
2026-04-14 03:09 32.90327 30.97241 34182 ft 464 kts 179°
2026-04-14 03:09 32.83904 30.97958 34182 ft 463 kts 180°
2026-04-14 03:10 32.77479 30.98664 34179 ft 464 kts 179°
2026-04-14 03:10 32.71052 30.99376 34170 ft 464 kts 179°
2026-04-14 03:11 32.64620 31.00085 34176 ft 463 kts 179°
2026-04-14 03:11 32.58201 31.00793 34171 ft 463 kts 179°
2026-04-14 03:12 32.51778 31.01507 34173 ft 463 kts 179°
2026-04-14 03:12 32.45361 31.02217 34170 ft 463 kts 179°
2026-04-14 03:13 32.38938 31.02931 34171 ft 463 kts 179°
2026-04-14 03:13 32.32559 31.03643 34164 ft 463 kts 179°
2026-04-14 03:14 32.26145 31.04352 34161 ft 463 kts 180°
2026-04-14 03:14 32.19716 31.05054 34160 ft 463 kts 179°
2026-04-14 03:15 32.13296 31.05760 34160 ft 463 kts 179°
2026-04-14 03:15 32.07958 31.06348 34161 ft 464 kts 179°
2026-04-14 03:16 32.01530 31.07055 34164 ft 464 kts 179°
2026-04-14 03:16 31.95101 31.07751 34161 ft 464 kts 180°
2026-04-14 03:17 31.88668 31.08437 34161 ft 464 kts 180°
2026-04-14 03:17 31.79027 31.09468 34158 ft 464 kts 179°
2026-04-14 03:18 31.72593 31.10160 34155 ft 464 kts 179°
2026-04-14 03:18 31.66165 31.10845 34151 ft 464 kts 180°
2026-04-14 03:19 31.59727 31.11533 34145 ft 464 kts 180°
2026-04-14 03:19 31.53290 31.12229 34144 ft 464 kts 179°
2026-04-14 03:20 31.46902 31.13200 34140 ft 467 kts 175°
2026-04-14 03:20 31.40487 31.14503 34140 ft 468 kts 174°
2026-04-14 03:21 31.34070 31.15818 34138 ft 468 kts 175°
2026-04-14 03:21 31.27650 31.17044 34140 ft 467 kts 175°
2026-04-14 03:22 31.21221 31.18220 34138 ft 467 kts 176°
2026-04-14 03:22 31.14787 31.19397 34132 ft 467 kts 175°
2026-04-14 03:23 31.08354 31.20593 34138 ft 467 kts 175°
2026-04-14 03:23 31.01969 31.21782 34124 ft 467 kts 175°
2026-04-14 03:24 30.95550 31.22977 34133 ft 467 kts 175°
2026-04-14 03:24 30.89120 31.24167 34125 ft 468 kts 175°
2026-04-14 03:25 30.82685 31.25357 34124 ft 468 kts 175°
2026-04-14 03:25 30.76251 31.26545 34122 ft 468 kts 175°
2026-04-14 03:26 30.69817 31.27733 34120 ft 468 kts 176°
2026-04-14 03:26 30.63386 31.28922 34117 ft 468 kts 175°
2026-04-14 03:27 30.56977 31.30103 34116 ft 469 kts 175°
2026-04-14 03:27 30.50533 31.31284 34114 ft 469 kts 176°
2026-04-14 03:28 30.44085 31.32472 34112 ft 468 kts 175°
2026-04-14 03:28 30.37637 31.33660 34106 ft 469 kts 176°
2026-04-14 03:29 30.31197 31.34840 34102 ft 469 kts 176°
2026-04-14 03:29 30.24786 31.36015 34098 ft 469 kts 176°
2026-04-14 03:30 30.18303 31.37205 34095 ft 469 kts 176°
2026-04-14 03:30 30.12020 31.39168 34097 ft 478 kts 158°
2026-04-14 03:31 30.09111 31.41053 34095 ft 482 kts 147°
2026-04-14 03:31 30.06509 31.43514 34092 ft 485 kts 136°
2026-04-14 03:31 30.02311 31.49611 34089 ft 487 kts 127°
2026-04-14 03:32 29.98264 31.55893 34089 ft 487 kts 127°
2026-04-14 03:32 29.94200 31.62155 34090 ft 488 kts 127°
2026-04-14 03:33 29.90127 31.68432 34097 ft 488 kts 127°
2026-04-14 03:33 29.86085 31.74732 34101 ft 489 kts 127°
2026-04-14 03:34 29.80116 31.84206 34108 ft 489 kts 121°
2026-04-14 03:35 29.77350 31.91326 34113 ft 486 kts 103°
2026-04-14 03:35 29.75674 31.98882 34117 ft 486 kts 102°
2026-04-14 03:36 29.74003 32.06428 34119 ft 486 kts 102°
2026-04-14 03:36 29.72331 32.13908 34125 ft 486 kts 102°
2026-04-14 03:37 29.70643 32.21451 34130 ft 486 kts 102°
2026-04-14 03:37 29.68947 32.28988 34130 ft 486 kts 102°
2026-04-14 03:38 29.67262 32.36461 34131 ft 485 kts 102°
2026-04-14 03:38 29.65550 32.43982 34132 ft 485 kts 102°
2026-04-14 03:39 29.63842 32.51486 34128 ft 485 kts 102°
2026-04-14 03:39 29.62145 32.58991 34132 ft 485 kts 102°
2026-04-14 03:40 29.60278 32.66447 34126 ft 486 kts 110°
2026-04-14 03:40 29.56964 32.73141 34124 ft 486 kts 127°
2026-04-14 03:41 29.52889 32.79350 34117 ft 486 kts 127°
2026-04-14 03:41 29.48800 32.85556 34112 ft 487 kts 127°
2026-04-14 03:42 29.44714 32.91746 34109 ft 486 kts 127°
2026-04-14 03:42 29.40637 32.97932 34112 ft 486 kts 127°
2026-04-14 03:43 29.36555 33.04120 34110 ft 486 kts 127°
2026-04-14 03:43 29.32491 33.10265 34115 ft 486 kts 127°
2026-04-14 03:44 29.28404 33.16443 34118 ft 486 kts 127°
2026-04-14 03:44 29.24314 33.22610 34118 ft 486 kts 127°
2026-04-14 03:45 29.20217 33.28775 34114 ft 485 kts 127°
2026-04-14 03:45 29.16128 33.34920 34114 ft 485 kts 127°
2026-04-14 03:46 29.12037 33.41066 34116 ft 485 kts 127°
2026-04-14 03:46 29.07977 33.47169 34118 ft 485 kts 127°
2026-04-14 03:47 29.03879 33.53313 34096 ft 486 kts 127°
2026-04-14 03:47 28.99760 33.59477 34088 ft 489 kts 127°
2026-04-14 03:48 28.95611 33.65672 34097 ft 491 kts 127°
2026-04-14 03:48 28.91451 33.71870 34108 ft 492 kts 127°
2026-04-14 03:49 28.87268 33.78072 34118 ft 493 kts 127°
2026-04-14 03:49 28.82632 33.83724 34123 ft 491 kts 141°
2026-04-14 03:50 28.77357 33.88690 34124 ft 491 kts 141°
2026-04-14 03:50 28.72086 33.93656 34129 ft 492 kts 141°
2026-04-14 03:51 28.66820 33.98616 34124 ft 491 kts 142°
2026-04-14 03:51 28.61542 34.03572 34120 ft 491 kts 141°
2026-04-14 03:52 28.56270 34.08522 34116 ft 491 kts 142°
2026-04-14 03:52 28.51014 34.13439 34114 ft 491 kts 142°
2026-04-14 03:52 28.48176 34.15551 34100 ft 486 kts 160°
2026-04-14 03:53 28.44953 34.16518 34098 ft 475 kts 180°
2026-04-14 03:53 28.41714 34.16226 34083 ft 461 kts 200°
2026-04-14 03:53 28.38675 34.15133 34073 ft 458 kts 204°
2026-04-14 03:54 28.32620 34.12804 34067 ft 461 kts 204°
2026-04-14 03:54 28.26541 34.10467 34053 ft 462 kts 204°
2026-04-14 03:55 28.20438 34.08144 34049 ft 463 kts 204°
2026-04-14 03:55 28.14317 34.05820 34040 ft 464 kts 204°
2026-04-14 03:56 28.08230 34.03504 34040 ft 464 kts 204°
2026-04-14 03:56 28.02092 34.01183 34039 ft 465 kts 203°